This demonstration page uses our WeatherBlox Daily Observations layout. Learn more.

Left ArrowRight Arrow

39.12711, -84.51439

Hourly Observations for August 19, 2022

Temp ( °F °C ) Dew Point ( °F °C ) Humidity (%) Winds ( mph kmh ) Pressure ( in mb ) Visibility ( mi km ) Precip ( " mm )
12:53 am 00:53 Clear 64 17.8 63 17.2 96 96 Calm 30.00 1016 8 13 0.00 0.00
1:53 am 01:53 Clear with Mist and Fog 63 17.2 62 16.7 97 97 Calm 30.01 1016 6 10 0.00 0.00
2:53 am 02:53 Clear with Mist and Fog 62 16.7 61 16.1 96 96 ENE 3 6 30.01 1016 5 8 0.00 0.00
3:53 am 03:53 Clear with Mist and Fog 61 16.1 61 16.1 100 100 Calm 30.01 1016 5 8 0.00 0.00
4:53 am 04:53 Clear with Mist and Fog 61 16.1 60 15.6 97 97 Calm 30.02 1017 3 5 0.00 0.00
5:21 am 05:21 Partly Cloudy with Mist and Fog 60 15.6 60 15.6 100 100 NNE 3 6 30.03 1017 5 8 0.00 0.00
5:53 am 05:53 Clear with Mist and Fog 60 15.6 60 15.6 100 100 NE 3 6 30.02 1017 4 6 0.00 0.00
6:01 am 06:01 Mostly Clear with Mist and Fog 60 15.6 60 15.6 100 100 NE 3 6 30.03 1017 4 6 0.00 0.00
6:41 am 06:41 Mostly Cloudy with Mist and Fog 60 15.6 60 15.6 100 100 Calm 30.03 1017 2 3 0.00 0.00
6:53 am 06:53 Mostly Cloudy with Patchy Fog 61 16.1 60 15.6 97 97 NNE 3 6 30.03 1017 2 3 0.00 0.00
7:28 am 07:28 Mostly Cloudy with Fog 62 16.7 62 16.7 100 100 Calm 30.04 1017 1 1 0.00 0.00
7:53 am 07:53 Mostly Cloudy with Fog 62 16.7 62 16.7 100 100 Calm 30.04 1017 1 1 0.00 0.00
8:00 am 08:00 Mostly Cloudy with Fog 63 17.2 63 17.2 100 100 Calm 30.04 1017 0 0 0.00 0.00
8:16 am 08:16 Mostly Cloudy with Fog 63 17.2 63 17.2 100 100 Calm 30.04 1017 1 1 0.00 0.00
8:29 am 08:29 Mostly Cloudy with Patchy Fog 63 17.2 63 17.2 100 100 Calm 30.05 1018 1 2 0.00 0.00
8:53 am 08:53 Partly Cloudy with Mist and Fog 64 17.8 64 17.8 100 100 Calm 30.05 1018 3 5 0.00 0.00
9:53 am 09:53 Sunny with Mist and Fog 72 22.2 65 18.3 79 79 Calm 30.05 1018 8 13 0.00 0.00
10:53 am 10:53 Sunny 78 25.6 67 19.4 69 69 Calm 30.04 1017 10 16 0.00 0.00
11:53 am 11:53 Partly Cloudy 81 27.2 65 18.3 58 58 S 3 6 30.04 1017 10 16 0.00 0.00
12:53 pm 12:53 Partly Cloudy 84 28.9 60 15.6 45 45 Calm 30.03 1017 10 16 0.00 0.00
1:53 pm 13:53 Partly Cloudy 85 29.4 62 16.7 46 46 SW 6 9 30.02 1017 10 16 0.00 0.00
2:53 pm 14:53 Mostly Cloudy 83 28.3 62 16.7 49 49 SSE 7 11 30.01 1016 10 16 0.00 0.00
3:53 pm 15:53 Mostly Cloudy 82 27.8 64 17.8 55 55 Calm 29.99 1016 10 16 0.00 0.00
4:53 pm 16:53 Partly Cloudy 82 27.8 63 17.2 53 53 SE 5 7 29.98 1015 10 16 0.00 0.00
5:53 pm 17:53 Partly Cloudy 84 28.9 63 17.2 49 49 ESE 5 7 29.97 1015 10 16 0.00 0.00
6:53 pm 18:53 Partly Cloudy 83 28.3 62 16.7 49 49 SE 3 6 29.97 1015 10 16 0.00 0.00
7:53 pm 19:53 Sunny 79 26.1 63 17.2 58 58 SE 5 7 29.97 1015 10 16 0.00 0.00
8:53 pm 20:53 Clear 71 21.7 66 18.9 84 84 Calm 29.99 1016 10 16 0.00 0.00
9:53 pm 21:53 Clear 68 20 65 18.3 90 90 Calm 30.00 1016 10 16 0.00 0.00
10:53 pm 22:53 Clear 67 19.4 65 18.3 93 93 Calm 30.01 1016 7 11 0.00 0.00
11:53 pm 23:53 Clear with Mist and Fog 66 18.9 65 18.3 96 96 Calm 30.02 1017 6 10 0.00 0.00

Powered by AerisWeather